TimeGMT,TemperatureF,Dew PointF,Humidity,Sea Level PressureIn,VisibilityMPH,Wind Direction,Wind SpeedMPH,Gust SpeedMPH,PrecipitationIn,Events,Conditions,WindDirDegrees,DateUTC
5:50 AM,48.2,42.8,82,30.21,6.2,South,9.2,-,N/A,,Partly Cloudy,170,2012-11-14 05:50:00
6:20 AM,48.2,44.6,87,30.21,6.2,South,9.2,-,N/A,,Scattered Clouds,170,2012-11-14 06:20:00
6:50 AM,50.0,44.6,82,30.21,6.2,South,10.4,-,N/A,,Mostly Cloudy,170,2012-11-14 06:50:00
7:20 AM,50.0,44.6,82,30.24,6.2,South,11.5,-,N/A,,Scattered Clouds,180,2012-11-14 07:20:00
7:50 AM,50.0,44.6,82,30.24,6.2,South,10.4,-,N/A,,Scattered Clouds,190,2012-11-14 07:50:00
8:20 AM,50.0,44.6,82,30.24,6.2,South,10.4,-,N/A,,Scattered Clouds,190,2012-11-14 08:20:00
8:50 AM,50.0,44.6,82,30.24,6.2,SSW,9.2,-,N/A,,Scattered Clouds,200,2012-11-14 08:50:00
9:20 AM,51.8,44.6,76,30.24,6.2,South,13.8,-,N/A,,Scattered Clouds,190,2012-11-14 09:20:00
9:50 AM,51.8,46.4,82,30.24,6.2,South,11.5,-,N/A,,Scattered Clouds,180,2012-11-14 09:50:00
10:20 AM,51.8,46.4,82,30.24,6.2,South,9.2,-,N/A,,Mostly Cloudy,180,2012-11-14 10:20:00
10:50 AM,53.6,46.4,77,30.24,6.2,South,10.4,-,N/A,,Mostly Cloudy,180,2012-11-14 10:50:00
11:20 AM,53.6,46.4,77,30.24,6.2,South,11.5,-,N/A,,Mostly Cloudy,180,2012-11-14 11:20:00
11:50 AM,53.6,46.4,77,30.24,6.2,South,10.4,-,N/A,,Mostly Cloudy,180,2012-11-14 11:50:00
12:20 PM,53.6,44.6,72,30.24,6.2,SSW,9.2,-,N/A,,Mostly Cloudy,200,2012-11-14 12:20:00
12:50 PM,55.4,44.6,67,30.24,6.2,SSW,8.1,-,N/A,,Mostly Cloudy,210,2012-11-14 12:50:00
1:20 PM,55.4,44.6,67,30.24,6.2,SSW,10.4,-,N/A,,Mostly Cloudy,210,2012-11-14 13:20:00
1:50 PM,55.4,44.6,67,30.24,6.2,SSW,9.2,-,N/A,,Mostly Cloudy,210,2012-11-14 13:50:00
2:20 PM,55.4,44.6,67,30.24,6.2,SSW,10.4,-,N/A,,Mostly Cloudy,210,2012-11-14 14:20:00
2:50 PM,53.6,44.6,72,30.24,6.2,SSW,10.4,-,N/A,,Mostly Cloudy,210,2012-11-14 14:50:00
3:20 PM,53.6,44.6,72,30.24,6.2,SSW,6.9,-,N/A,,Mostly Cloudy,210,2012-11-14 15:20:00
3:50 PM,53.6,44.6,72,30.24,6.2,SSW,11.5,-,N/A,,Mostly Cloudy,210,2012-11-14 15:50:00
4:20 PM,53.6,44.6,72,30.24,6.2,SW,9.2,-,N/A,,Mostly Cloudy,220,2012-11-14 16:20:00
4:50 PM,51.8,44.6,76,30.24,6.2,ESE,6.9,-,N/A,,Mostly Cloudy,110,2012-11-14 16:50:00
5:20 PM,51.8,44.6,76,30.24,6.2,SSW,8.1,-,N/A,,Scattered Clouds,210,2012-11-14 17:20:00
5:50 PM,51.8,46.4,82,30.24,6.2,SSW,5.8,-,N/A,,Scattered Clouds,200,2012-11-14 17:50:00
6:20 PM,51.8,46.4,82,30.27,6.2,South,5.8,-,N/A,,Partly Cloudy,190,2012-11-14 18:20:00
6:50 PM,51.8,46.4,82,30.24,6.2,South,8.1,-,N/A,,Partly Cloudy,190,2012-11-14 18:50:00
7:20 PM,50.0,44.6,82,30.24,6.2,SSW,10.4,-,N/A,,Partly Cloudy,200,2012-11-14 19:20:00
7:50 PM,50.0,46.4,87,30.24,6.2,South,8.1,-,N/A,,Partly Cloudy,180,2012-11-14 19:50:00
8:20 PM,48.2,44.6,87,30.24,6.2,South,8.1,-,N/A,,Partly Cloudy,190,2012-11-14 20:20:00
8:50 PM,48.2,44.6,87,30.24,6.2,South,6.9,-,N/A,,Partly Cloudy,190,2012-11-14 20:50:00
9:20 PM,48.2,44.6,87,30.24,6.2,South,8.1,-,N/A,,Partly Cloudy,180,2012-11-14 21:20:00
9:50 PM,46.4,44.6,93,30.27,-9999.0,South,6.9,-,N/A,,Clear,190,2012-11-14 21:50:00